• In United States
  • List of Countries
  • For 7 days
  • Water Temperature
  • Satellite Maps
  • Weather Map
  • Weather Widgets
  • user-avatar
    Login

    Hourly Weather Malanje

    Today, 20 January, Saturday

    Time Temperature Precipitation Wind Pressure Humidity
    00:00 +20°C° 0.2 mm 1 mps 664 mmHg 99%
    01:00 +19°C° 0.2 mm 2 mps 664 mmHg 99%
    02:00 +19°C° 0.2 mm 2 mps 664 mmHg 99%
    03:00 +19°C° 0.2 mm 2 mps 664 mmHg 98%
    04:00 +19°C° 0.2 mm 2 mps 664 mmHg 98%
    05:00 +19°C° 0.1 mm 2 mps 664 mmHg 98%
    06:00 +19°C° 0.1 mm 2 mps 664 mmHg 98%
    07:00 +19°C° 0.1 mm 2 mps 664 mmHg 98%
    08:00 +19°C° 0.1 mm 2 mps 665 mmHg 95%
    09:00 +20°C° 0.1 mm 2 mps 665 mmHg 92%
    10:00 +21°C° 0.1 mm 2 mps 665 mmHg 89%
    11:00 +23°C° 0.1 mm 2 mps 665 mmHg 83%
    12:00 +24°C° 0.1 mm 2 mps 665 mmHg 77%
    13:00 +25°C° 0.1 mm 3 mps 665 mmHg 71%
    14:00 +25°C° 0.2 mm 3 mps 664 mmHg 71%
    15:00 +25°C° 0.2 mm 3 mps 663 mmHg 71%
    16:00 +25°C° 0.2 mm 2 mps 663 mmHg 71%
    17:00 +24°C° 0.1 mm 2 mps 663 mmHg 78%
    18:00 +21°C° 0.1 mm 2 mps 663 mmHg 84%
    19:00 +21°C° 0.1 mm 1 mps 663 mmHg 91%
    20:00 +20°C° 0 mm 1 mps 664 mmHg 93%
    21:00 +20°C° 0 mm 1 mps 664 mmHg 95%
    22:00 +19°C° 0 mm 1 mps 665 mmHg 96%
    23:00 +19°C° 0 mm 1 mps 665 mmHg 97%

    Tomorrow, 21 January, Sunday

    Time Temperature Precipitation Wind Pressure Humidity
    00:00 +19°C° 0 mm 1 mps 664 mmHg 98%
    01:00 +19°C° 0 mm 1 mps 664 mmHg 99%
    02:00 +19°C° 0 mm 1 mps 664 mmHg 98%
    03:00 +19°C° 0 mm 1 mps 664 mmHg 98%
    04:00 +19°C° 0 mm 1 mps 664 mmHg 97%
    05:00 +19°C° 0 mm 1 mps 665 mmHg 97%
    06:00 +20°C° 0 mm 1 mps 665 mmHg 96%
    07:00 +20°C° 0 mm 1 mps 665 mmHg 96%
    08:00 +21°C° 0 mm 1 mps 666 mmHg 91%
    09:00 +22°C° 0 mm 1 mps 666 mmHg 86%
    10:00 +23°C° 0 mm 2 mps 667 mmHg 81%
    11:00 +24°C° 0.3 mm 2 mps 666 mmHg 77%
    12:00 +25°C° 0.3 mm 2 mps 665 mmHg 73%
    13:00 +26°C° 0.3 mm 2 mps 665 mmHg 70%
    14:00 +26°C° 0.5 mm 3 mps 664 mmHg 73%
    15:00 +25°C° 0.5 mm 3 mps 664 mmHg 76%
    16:00 +25°C° 0.5 mm 3 mps 663 mmHg 80%
    17:00 +22°C° 0.6 mm 3 mps 663 mmHg 85%
    18:00 +21°C° 0.6 mm 2 mps 664 mmHg 90%
    19:00 +19°C° 0.6 mm 2 mps 664 mmHg 95%
    20:00 +19°C° 0.1 mm 2 mps 664 mmHg 96%
    21:00 +19°C° 0.1 mm 2 mps 665 mmHg 97%
    22:00 +19°C° 0.1 mm 2 mps 666 mmHg 98%
    23:00 +18°C° 0 mm 2 mps 665 mmHg 98%

    Day after tomorrow, 22 January, Monday

    Time Temperature Precipitation Wind Pressure Humidity
    00:00 +18°C° 0 mm 2 mps 665 mmHg 98%
    01:00 +18°C° 0 mm 2 mps 664 mmHg 98%
    02:00 +18°C° 0.1 mm 2 mps 664 mmHg 98%
    03:00 +18°C° 0.1 mm 2 mps 664 mmHg 98%
    04:00 +18°C° 0.1 mm 2 mps 664 mmHg 98%
    05:00 +19°C° 0.1 mm 1 mps 664 mmHg 97%
    06:00 +20°C° 0.1 mm 1 mps 665 mmHg 97%
    07:00 +20°C° 0.1 mm 1 mps 665 mmHg 96%
    08:00 +20°C° 0.2 mm 2 mps 666 mmHg 91%
    09:00 +21°C° 0.2 mm 2 mps 666 mmHg 87%
    10:00 +23°C° 0.2 mm 2 mps 667 mmHg 82%
    11:00 +24°C° 0.6 mm 3 mps 666 mmHg 78%
    12:00 +25°C° 0.6 mm 3 mps 665 mmHg 75%
    13:00 +26°C° 0.6 mm 3 mps 665 mmHg 71%
    14:00 +26°C° 0.8 mm 3 mps 664 mmHg 74%
    15:00 +26°C° 0.8 mm 3 mps 664 mmHg 77%
    16:00 +25°C° 0.8 mm 3 mps 663 mmHg 80%
    17:00 +24°C° 1 mm 2 mps 663 mmHg 85%
    18:00 +21°C° 1 mm 2 mps 663 mmHg 89%
    19:00 +20°C° 1 mm 2 mps 664 mmHg 94%
    20:00 +19°C° 0.1 mm 2 mps 664 mmHg 95%
    21:00 +20°C° 0.1 mm 1 mps 665 mmHg 95%
    22:00 +20°C° 0.1 mm 1 mps 665 mmHg 96%
    23:00 +18°C° 0.1 mm 2 mps 665 mmHg 96%

    23 January, Tuesday

    Time Temperature Precipitation Wind Pressure Humidity
    00:00 +18°C° 0.1 mm 2 mps 664 mmHg 96%
    01:00 +18°C° 0.1 mm 2 mps 664 mmHg 97%
    02:00 +18°C° 0 mm 2 mps 664 mmHg 97%
    03:00 +17°C° 0 mm 2 mps 663 mmHg 97%
    04:00 +17°C° 0 mm 2 mps 663 mmHg 97%
    05:00 +18°C° 0 mm 1 mps 664 mmHg 96%
    06:00 +19°C° 0 mm 1 mps 664 mmHg 95%
    07:00 +19°C° 0 mm 1 mps 664 mmHg 94%
    08:00 +20°C° 0 mm 2 mps 665 mmHg 85%
    09:00 +23°C° 0 mm 2 mps 665 mmHg 76%
    10:00 +25°C° 0 mm 2 mps 666 mmHg 67%
    11:00 +26°C° 0 mm 2 mps 665 mmHg 63%
    12:00 +27°C° 0 mm 3 mps 665 mmHg 59%
    13:00 +28°C° 0 mm 3 mps 664 mmHg 55%
    14:00 +28°C° 0 mm 3 mps 663 mmHg 58%
    15:00 +27°C° 0 mm 3 mps 663 mmHg 61%
    16:00 +27°C° 0 mm 3 mps 662 mmHg 64%
    17:00 +25°C° 0.1 mm 3 mps 662 mmHg 72%
    18:00 +23°C° 0.1 mm 2 mps 663 mmHg 79%
    19:00 +20°C° 0.1 mm 2 mps 663 mmHg 87%
    20:00 +21°C° 0.1 mm 1 mps 663 mmHg 89%
    21:00 +20°C° 0.1 mm 1 mps 664 mmHg 90%
    22:00 +20°C° 0.1 mm 1 mps 664 mmHg 91%
    23:00 +20°C° 0.3 mm 1 mps 664 mmHg 92%

    24 January, Wednesday

    Time Temperature Precipitation Wind Pressure Humidity
    00:00 +19°C° 0.3 mm 1 mps 663 mmHg 93%
    01:00 +19°C° 0.3 mm 1 mps 663 mmHg 95%
    02:00 +19°C° 0.1 mm 1 mps 663 mmHg 96%
    03:00 +18°C° 0.1 mm 2 mps 663 mmHg 97%
    04:00 +18°C° 0.1 mm 2 mps 663 mmHg 98%
    05:00 +18°C° 0 mm 2 mps 663 mmHg 97%
    06:00 +18°C° 0 mm 2 mps 664 mmHg 96%
    07:00 +20°C° 0 mm 1 mps 664 mmHg 96%
    08:00 +20°C° 0.1 mm 2 mps 665 mmHg 91%
    09:00 +21°C° 0.1 mm 2 mps 665 mmHg 86%
    10:00 +23°C° 0.1 mm 2 mps 666 mmHg 81%
    11:00 +24°C° 0.5 mm 2 mps 665 mmHg 76%
    12:00 +25°C° 0.5 mm 2 mps 665 mmHg 72%
    13:00 +26°C° 0.5 mm 2 mps 664 mmHg 67%
    14:00 +26°C° 0.6 mm 2 mps 664 mmHg 71%
    15:00 +25°C° 0.6 mm 2 mps 663 mmHg 74%
    16:00 +25°C° 0.6 mm 2 mps 663 mmHg 78%
    17:00 +24°C° 0.1 mm 2 mps 663 mmHg 82%
    18:00 +21°C° 0.1 mm 2 mps 663 mmHg 86%
    19:00 +21°C° 0.1 mm 1 mps 663 mmHg 90%
    20:00 +20°C° 0 mm 1 mps 663 mmHg 91%
    21:00 +20°C° 0 mm 1 mps 664 mmHg 91%
    22:00 +19°C° 0 mm 1 mps 664 mmHg 92%
    23:00 +19°C° 0 mm 1 mps 664 mmHg 92%

    25 January, Thursday

    Time Temperature Precipitation Wind Pressure Humidity
    00:00 +18°C° 0 mm 1 mps 663 mmHg 93%
    01:00 +18°C° 0 mm 1 mps 663 mmHg 94%
    02:00 +18°C° 0 mm 1 mps 663 mmHg 94%
    03:00 +16°C° 0 mm 1 mps 662 mmHg 94%
    04:00 +16°C° 0 mm 1 mps 662 mmHg 94%
    05:00 +18°C° 0 mm 1 mps 663 mmHg 92%
    06:00 +18°C° 0 mm 1 mps 663 mmHg 91%
    07:00 +19°C° 0 mm 1 mps 664 mmHg 89%
    08:00 +21°C° 0 mm 1 mps 664 mmHg 80%
    09:00 +23°C° 0 mm 2 mps 665 mmHg 71%
    10:00 +26°C° 0 mm 2 mps 665 mmHg 62%
    11:00 +27°C° 0.1 mm 3 mps 665 mmHg 59%
    12:00 +27°C° 0.1 mm 3 mps 665 mmHg 56%
    13:00 +28°C° 0.1 mm 3 mps 664 mmHg 53%
    14:00 +28°C° 0.2 mm 3 mps 664 mmHg 57%
    15:00 +28°C° 0.2 mm 3 mps 663 mmHg 60%
    16:00 +27°C° 0.2 mm 3 mps 663 mmHg 63%
    17:00 +25°C° 0.3 mm 2 mps 663 mmHg 72%
    18:00 +23°C° 0.3 mm 2 mps 663 mmHg 80%
    19:00 +20°C° 0.3 mm 2 mps 663 mmHg 89%
    20:00 +20°C° 0 mm 1 mps 663 mmHg 90%
    21:00 +20°C° 0 mm 1 mps 663 mmHg 91%
    22:00 +19°C° 0 mm 1 mps 664 mmHg 92%
    23:00 +19°C° 0 mm 1 mps 663 mmHg 93%
    Show more